Weather History for Yakima, WA

Change the Weather History Date:

Wednesday, April 16, 2014

  Actual Average Record
Temperature  
Mean Temperature 55 °F 49 °F  
Max Temperature 65 °F 64 °F 82 °F (1949)
Min Temperature 45 °F 34 °F 22 °F (1964)
Degree Days  
Heating Degree Days 10 16  
Month to date heating degree days 192 276  
Since 1 July heating degree days 5228 5480  
Cooling Degree Days 0 0  
Month to date cooling degree days 0 0  
Year to date cooling degree days 0 0  
Growing Degree Days 4 (Base 50)    
Moisture  
Dew Point 36 °F    
Average Humidity 51    
Maximum Humidity 66    
Minimum Humidity 36    
Precipitation  
Precipitation T in 0.02 in 0.14 in (1978)
Month to date precipitation T 0.28  
Year to date precipitation 2.33 2.82  
Snow  
Snow 0.00 in 0.00 in 0.00 in (2002)
Month to date snowfall 0.0 0.0  
Year to date snowfall 19.9 8.6  
Since 1 July snowfall 19.9 21.6  
Snow Depth 0.00 in    
Sea Level Pressure  
Sea Level Pressure 30.00 in    
Wind  
Wind Speed 4 mph (WSW)    
Max Wind Speed 18 mph    
Max Gust Speed 23 mph    
Visibility 10 miles    
Events      
T = Trace of Precipitation, MM = Missing Value Source: NWS Daily Summary

Daily Weather History Graph

Daily Weather History Graph

Search for Another Location

Airport:

Trip Planner

Search our weather history database for the weather conditions in past years. The results will help you decide how hot, cold, wet, or windy it might be!

Date:

Astronomy

Apr. 16, 2014 Rise Set
Actual Time 6:13 AM PDT 7:51 PM PDT
Civil Twilight 5:41 AM PDT 8:23 PM PDT
Nautical Twilight 5:02 AM PDT 9:02 PM PDT
Astronomical Twilight 4:20 AM PDT 9:44 PM PDT
Moon 9:46 PM PDT (4/16) 7:00 AM PDT (4/16)
Length of Visible Light 14h 42m
Length of Day
13h 38m
Full, 98% of the Moon is Illuminated
Apr 16
Full
Apr 22
Last Quarter
Apr 28
New
May 6
First Quarter
May 14
Full

Hourly Weather History & Observations

Time (PDT) Temp. Windchill Dew Point Humidity Pressure Visibility Wind Dir Wind Speed Gust Speed Precip Events Conditions
12:53 AM 51.1 °F - 32.0 °F 48% 30.04 in 10.0 mi Calm Calm - N/A   Clear
1:53 AM 51.1 °F - 33.1 °F 50% 30.04 in 10.0 mi Calm Calm - N/A   Overcast
2:53 AM 50.0 °F - 33.1 °F 52% 30.02 in 10.0 mi East 5.8 mph - N/A   Overcast
3:53 AM 50.0 °F - 33.1 °F 52% 30.02 in 10.0 mi Calm Calm - N/A   Overcast
4:53 AM 48.0 °F - 34.0 °F 58% 30.03 in 10.0 mi Calm Calm - N/A   Overcast
5:53 AM 46.9 °F - 34.0 °F 61% 30.03 in 10.0 mi Calm Calm - N/A   Overcast
6:53 AM 46.0 °F 43.9 °F 35.1 °F 66% 30.04 in 10.0 mi WNW 4.6 mph - N/A   Scattered Clouds
7:53 AM 48.9 °F - 35.1 °F 59% 30.04 in 10.0 mi West 4.6 mph - N/A   Scattered Clouds
8:53 AM 53.1 °F - 36.0 °F 52% 30.04 in 10.0 mi Calm Calm - N/A   Overcast
9:53 AM 55.0 °F - 35.1 °F 47% 30.04 in 10.0 mi Calm Calm - N/A   Mostly Cloudy
10:53 AM 55.9 °F - 35.1 °F 45% 30.04 in 10.0 mi Calm Calm - N/A   Clear
11:53 AM 59.0 °F - 36.0 °F 42% 30.02 in 10.0 mi ESE 6.9 mph - N/A   Mostly Cloudy
12:53 PM 61.0 °F - 36.0 °F 39% 30.01 in 10.0 mi SSW 8.1 mph - N/A   Overcast
1:53 PM 63.0 °F - 36.0 °F 37% 29.99 in 10.0 mi SSW 11.5 mph 18.4 mph N/A   Mostly Cloudy
2:53 PM 62.1 °F - 37.0 °F 39% 29.99 in 10.0 mi South 15.0 mph 19.6 mph N/A   Mostly Cloudy
3:53 PM 64.0 °F - 37.0 °F 37% 29.96 in 10.0 mi South 11.5 mph 20.7 mph N/A   Clear
4:53 PM 63.0 °F - 37.0 °F 38% 29.96 in 10.0 mi SW 10.4 mph - N/A   Mostly Cloudy
5:53 PM 63.0 °F - 37.0 °F 38% 29.95 in 10.0 mi WSW 6.9 mph - N/A   Overcast
6:53 PM 62.1 °F - 37.0 °F 39% 29.95 in 10.0 mi WSW 6.9 mph - N/A   Overcast
7:53 PM 57.9 °F - 39.0 °F 49% 29.94 in 10.0 mi West 3.5 mph - N/A   Mostly Cloudy
8:53 PM 57.9 °F - 39.9 °F 51% 29.95 in 10.0 mi North 5.8 mph - 0.00 in   Overcast
9:53 PM 57.0 °F - 39.9 °F 53% 29.95 in 10.0 mi NNW 4.6 mph - 0.00 in   Overcast
10:53 PM 54.0 °F - 42.1 °F 64% 29.94 in 10.0 mi Calm Calm - N/A   Overcast
11:53 PM 53.1 °F - 42.1 °F 66% 29.93 in 10.0 mi Calm Calm - N/A   Overcast